This is the latest recevied weather packets stored in our database for station/object AB4KY. If no packets are shown the sender has not sent any weather packets the latest 10 day(s).
| Time | Temp. | Humidity | Pressure | Rain* | Wind** | Luminosity | Snow |
|---|---|---|---|---|---|---|---|
| 1777753016 | 11.11° C | 56% | 1014.8 hPa | 0 mm | - | 75 W/m² | - |
| 1777752713 | 11.67° C | 60% | 1014.7 hPa | 0 mm | - | 77 W/m² | - |
| 1777752408 | 11.67° C | 54% | 1014.9 hPa | 0 mm | - | 92 W/m² | - |
| 1777752105 | 12.22° C | 54% | 1015.1 hPa | 0 mm | - | 108 W/m² | - |
| 1777751803 | 12.22° C | 53% | 1015.1 hPa | 0 mm | - | 159 W/m² | - |
| 1777751499 | 12.22° C | 53% | 1015 hPa | 0 mm | - | 330 W/m² | - |
| 1777751196 | 11.67° C | 58% | 1015.2 hPa | 0 mm | - | 142 W/m² | - |
| 1777750893 | 11.67° C | 55% | 1015.2 hPa | 0 mm | - | 125 W/m² | - |
| 1777750589 | 11.67° C | 54% | 1015.1 hPa | 0 mm | - | 121 W/m² | - |
| 1777750287 | 11.67° C | 56% | 1015.1 hPa | 0 mm | - | 163 W/m² | - |
| 1777749982 | 11.67° C | 56% | 1015.3 hPa | 0 mm | - | 124 W/m² | - |
| 1777749680 | 11.67° C | 55% | 1015.2 hPa | 0 mm | - | 70 W/m² | - |
| 1777749376 | 11.67° C | 54% | 1015.1 hPa | 0 mm | - | 93 W/m² | - |
| 1777749074 | 12.22° C | 51% | 1015.3 hPa | 0 mm | - | 116 W/m² | - |
| 1777748771 | 12.78° C | 55% | 1015.4 hPa | 0 mm | - | 206 W/m² | - |
| 1777748469 | 12.78° C | 55% | 1015.2 hPa | 0 mm | - | 144 W/m² | - |
| 1777748163 | 12.78° C | 54% | 1015.1 hPa | 0 mm | - | 246 W/m² | - |
| 1777747860 | 12.78° C | 52% | 1015.2 hPa | 0 mm | - | 241 W/m² | - |
| 1777747556 | 12.78° C | 49% | 1015.3 hPa | 0 mm | - | 464 W/m² | - |
| 1777747252 | 12.78° C | 47% | 1015.5 hPa | 0 mm | - | 498 W/m² | - |
| 1777746948 | 12.22° C | 54% | 1015.4 hPa | 0 mm | - | 165 W/m² | - |
| 1777746645 | 12.78° C | 48% | 1015.4 hPa | 0 mm | - | 214 W/m² | - |
| 1777746340 | 13.33° C | 50% | 1015.7 hPa | 0 mm | - | 217 W/m² | - |
| 1777746036 | 12.78° C | 50% | 1015.5 hPa | 0 mm | - | 710 W/m² | - |
| 1777745733 | 12.78° C | 55% | 1015.7 hPa | 0 mm | - | 690 W/m² | - |
* Rain latest hour (hover to see other rain measurements)
** Current wind speed in m/s (hover to see current wind gust speed)